Home > Weather > Jalalabad > Past weeks

Flag for Afghanistan Past Weather in Jalalabad, Afghanistan — Yesterday and Last 2 Weeks

Now
97 °F

Haze.


Feels Like: 99 °F
Forecast: 69 / 103 °F
Wind: 16 mph from Southeast

Location: Peshawar Airport

Current Time: May 30, 2016 at 1:18:31 PM

Latest Report: May 30, 2016 at 1:00 PM


Visibility: 3 mi

Pressure: 29.59 "Hg (27.78 "Hg at 572m altitude)

Humidity: 34%

Dew Point: 64 °F

Location of JalalabadLocation

Past Weather in Jalalabad — Graph

°F

Jalalabad Temperature Yesterday

Maximum temperature yesterday: 106 °F (at 3:30 PM)
Minimum temperature yesterday: 79 °F (at 4:30 AM)
Average temperature yesterday: 95 °F

High & Low Weather Summary for the Past Weeks

 TemperatureHumidityPressure
High111 °F (May 19, 3:30 PM)65% (May 16, 5:30 AM)29.80 "Hg (May 16, 5:30 AM)
Low72 °F (May 25, 4:29 AM)13% (May 28, 5:30 PM)29.45 "Hg (May 25, 6:30 PM)
Average92 °F36%29.59 "Hg
* Reported May 15 11:30 AM — May 30 12:00 PM, Jalalabad, Weather by CustomWeather, © 2016

Note: Actual official high and low records may vary slightly from our data, if they occured in-between our weather recording intervals... More about our weather records

Advertising

Jalalabad Weather History for the Previous 24 Hours

Scroll right to see more
 ConditionsComfort  
Time TempWeatherWind HumidityBarometerVisibility
12:00 PM
Mon, May 30
95 °FHaze.16 mph36%29.62 "Hg3 mi
11:30 AM95 °FHaze.16 mph36%29.62 "Hg3 mi
11:00 AM91 °FHaze.18 mph44%29.62 "Hg3 mi
10:30 AM91 °FHaze.18 mph44%29.62 "Hg3 mi
10:00 AM88 °FHaze.18 mph43%29.62 "Hg3 mi
9:30 AM88 °FHaze.18 mph43%29.62 "Hg3 mi
9:00 AM86 °FHaze.18 mph46%29.62 "Hg2 mi
8:30 AM86 °FHaze.18 mph46%29.62 "Hg2 mi
8:00 AM88 °FHaze.14 mph43%29.59 "Hg2 mi
7:30 AM88 °FHaze.14 mph43%29.59 "Hg2 mi
7:00 AM84 °FHaze.12 mph45%29.56 "Hg2 mi
6:30 AM84 °FHaze.12 mph45%29.56 "Hg2 mi
6:00 AM82 °FHaze.9 mph48%29.53 "Hg2 mi
5:30 AM82 °FHaze.9 mph48%29.53 "Hg2 mi
5:00 AM82 °FHaze.12 mph51%N/A2 mi
4:30 AM82 °FHaze.12 mph51%N/A2 mi
4:00 AM82 °FThundershowers. Passing clouds.16 mph51%N/A2 mi
3:30 AM82 °FThundershowers. Passing clouds.16 mph51%N/A2 mi
3:00 AM88 °FThundershowers. Passing clouds.18 mph49%29.53 "Hg2 mi
2:30 AM88 °FThundershowers. Passing clouds.18 mph49%29.53 "Hg2 mi
1:30 AM88 °FThundershowers. Passing clouds.14 mph49%29.53 "Hg2 mi
1:00 AM90 °FHaze.14 mph46%N/A2 mi
12:30 AM90 °FHaze.14 mph46%N/A2 mi
12:00 AM91 °FHaze.12 mph46%N/A2 mi
11:30 PM
Sun, May 29
91 °FHaze.12 mph46%N/A2 mi
11:00 PM91 °FClear.5 mph46%N/A2 mi
10:30 PM91 °FClear.5 mph46%N/A2 mi
10:00 PM93 °FClear.5 mph44%N/A2 mi
9:30 PM93 °FClear.5 mph44%N/A2 mi
9:00 PM95 °FHaze.No wind41%N/A2 mi
8:30 PM95 °FHaze.No wind41%N/A2 mi
8:00 PM99 °FHaze.7 mph37%N/A2 mi
7:30 PM99 °FHaze.7 mph37%N/A2 mi
7:00 PM100 °FHaze.9 mph37%N/A2 mi
6:30 PM100 °FHaze.9 mph37%N/A2 mi
6:00 PM102 °FHaze.9 mph35%N/A2 mi
5:30 PM102 °FHaze.9 mph35%N/A2 mi
4:30 PM104 °FHaze.12 mph35%N/A3 mi
4:00 PM106 °FHaze.12 mph34%N/A3 mi
3:30 PM106 °FHaze.12 mph34%N/A3 mi
3:00 PM104 °FHaze.14 mph33%N/A3 mi
2:00 PM104 °FHaze.14 mph33%N/A3 mi
1:30 PM104 °FHaze.14 mph33%N/A3 mi
1:00 PM102 °FSunny.12 mph35%N/A3 mi
Weather by CustomWeather, © 2016

See weather overviewHow to use our weather pages